Content
SEND FEEDBACK

Daily
Averages
Monthly
Summary
United States of America

TAMUNING, GUAM


Home > North America > United States > Guam
Elevation: 76 meters     Latitude: 13 29N     Longitude: 144 47E

WEATHER
 
SELECT A DAY
Number of Records: 350,199;   Date Range: 1/1/95 - 9/29/14
 
SHARE

PRINT THIS DATA

[ ← Previous Day ]
WEATHER ALMANAC - 13 JULY, 2013
[ Next Day → ]
[ °F ]   °C
Weather ElementAverageHighLow
Temperature28.2 °C30.7 °C (1:55 pm)26 °C (1:37 am)
Dewpoint24.9 °C27 °C (2:58 pm)22 °C (2:53 am)
Humidity82.6 %89 % (1:23 am)77 % (1:55 pm)
Barometer1009.5 hPa1010.8 hPa (8:55 am)1008.1 hPa (3:32 pm)
Wind Speed20.8 km/h27.8 km/h (4:34 pm)
Wind Gust35.2 km/h (3:55 pm)
Weather ElementAverage
Visibility16.1 km
Wind DirectionENE (81.9 °)

Weather ElementTotal
Precipitation---
Cooling Degree Days10.1 (Base 18.3)
Growing Degree Days18.4 (Base 10)
Averaged from 70 records on 13 July, 2013
WEATHER CONDITIONS BREAKOUT
WIND DIRECTION BREAKOUT
WEATHER BY HOUR - 13 JULY, 2013
[ °F ]   °C
Local TimeTemperatureDewpointHumidityBarometerVisibilityWind DirectionWind SpeedGust SpeedPrecipitationEventsConditions
12:24 AM27 °C24 °C84 %1010.2 hPa16.1 kmEast (100°)18.5 km/hScattered Clouds
12:55 AM27 °C23.9 °C83 %1009.8 hPa16.1 kmEast (100°)22.2 km/hScattered Clouds
1:15 AM27 °C24 °C84 %1009.5 hPa14.5 kmENE (70°)25.9 km/hRainRain
1:23 AM27 °C25 °C89 %1009.5 hPa14.5 kmEast (80°)20.4 km/hRainLight Rain
1:26 AM27 °C24 °C84 %1009.5 hPa16.1 kmEast (80°)18.5 km/hScattered Clouds
1:37 AM26 °C24 °C89 %1009.5 hPa16.1 kmEast (80°)20.4 km/hMostly Cloudy
1:41 AM26 °C23 °C83 %1009.5 hPa16.1 kmEast (80°)20.4 km/hMostly Cloudy
1:55 AM26.5 °C22.7 °C80 %1009.5 hPa16.1 kmEast (80°)18.5 km/h0 mmMostly Cloudy
2:53 AM26 °C22 °C78 %1009.1 hPa16.1 kmEast (80°)20.4 km/hMostly Cloudy
2:55 AM26.5 °C22.4 °C78 %1009.1 hPa16.1 kmEast (90°)20.4 km/hMostly Cloudy
3:50 AM27 °C23 °C79 %1008.8 hPa16.1 kmEast (90°)16.7 km/hScattered Clouds
3:55 AM26.6 °C23.2 °C81 %1008.8 hPa16.1 kmEast (80°)18.5 km/hScattered Clouds
4:22 AM27 °C24 °C84 %1009.1 hPa16.1 kmENE (70°)20.4 km/hMostly Cloudy
4:33 AM27 °C24 °C84 %1009.1 hPa16.1 kmEast (80°)24.1 km/hScattered Clouds
4:55 AM26.6 °C23 °C80 %1009.5 hPa16.1 kmEast (90°)20.4 km/hScattered Clouds
5:09 AM27 °C24 °C84 %1009.5 hPa16.1 kmEast (90°)18.5 km/hMostly Cloudy
5:18 AM27 °C23 °C79 %1009.5 hPa16.1 kmEast (90°)20.4 km/hMostly Cloudy
5:31 AM27 °C24 °C84 %1009.5 hPa16.1 kmEast (100°)16.7 km/hMostly Cloudy
5:36 AM27 °C24 °C84 %1009.5 hPa16.1 kmEast (80°)18.5 km/hMostly Cloudy
5:37 AM27 °C24 °C84 %1009.5 hPa16.1 kmEast (90°)20.4 km/hMostly Cloudy
5:39 AM27 °C24 °C84 %1009.5 hPa16.1 kmEast (90°)22.2 km/hMostly Cloudy
5:55 AM26.8 °C23.7 °C83 %1009.5 hPa16.1 kmEast (90°)22.2 km/hScattered Clouds
6:11 AM27 °C24 °C84 %1009.5 hPa16.1 kmEast (90°)22.2 km/hMostly Cloudy
6:16 AM27 °C24 °C84 %1009.5 hPa16.1 kmEast (90°)20.4 km/hScattered Clouds
6:55 AM27.3 °C23.9 °C82 %1009.8 hPa16.1 kmEast (80°)20.4 km/hMostly Cloudy
7:24 AM28 °C25 °C84 %1010.2 hPa16.1 kmEast (100°)18.5 km/hMostly Cloudy
7:55 AM28.1 °C24.6 °C81 %1010.5 hPa16.1 kmEast (90°)22.2 km/hMostly Cloudy
7:56 AM28 °C25 °C84 %1010.5 hPa16.1 kmEast (90°)22.2 km/hScattered Clouds
8:55 AM28.8 °C25.8 °C84 %1010.8 hPa16.1 kmEast (90°)18.5 km/hScattered Clouds
9:14 AM29 °C26 °C84 %1010.8 hPa16.1 kmEast (90°)18.5 km/hMostly Cloudy
9:54 AM29 °C26 °C84 %1010.5 hPa16.1 kmEast (90°)22.2 km/hScattered Clouds
9:55 AM29.3 °C25.7 °C81 %1010.5 hPa16.1 kmEast (90°)22.2 km/hScattered Clouds
10:55 AM29.5 °C25.8 °C80 %1009.8 hPa16.1 kmEast (90°)22.2 km/hPartly Cloudy
11:53 AM30 °C26 °C79 %1009.5 hPa16.1 kmEast (80°)20.4 km/hLight Drizzle
11:55 AM29.4 °C26.4 °C84 %1009.5 hPa16.1 kmEast (80°)20.4 km/h0 mmLight Drizzle
12:02 PM29 °C26 °C84 %1009.5 hPa16.1 kmEast (90°)20.4 km/hMostly Cloudy
12:10 PM30 °C26 °C79 %1009.5 hPa16.1 kmEast (80°)24.1 km/hMostly Cloudy
12:55 PM30.6 °C26.5 °C79 %1008.8 hPa16.1 kmEast (100°)20.4 km/h0 mmScattered Clouds
1:55 PM30.7 °C26.3 °C77 %1008.5 hPa16.1 kmEast (100°)22.2 km/hPartly Cloudy
2:20 PM30 °C26 °C79 %1008.5 hPa16.1 kmEast (90°)22.2 km/hMostly Cloudy
2:24 PM30 °C26 °C79 %1008.5 hPa16.1 kmEast (90°)24.1 km/h33.3 km/hScattered Clouds
2:55 PM30.2 °C26.6 °C81 %1008.5 hPa16.1 kmEast (80°)20.4 km/hScattered Clouds
2:58 PM30 °C27 °C84 %1008.5 hPa16.1 kmENE (70°)25.9 km/hMostly Cloudy
3:02 PM30 °C26 °C79 %1008.5 hPa16.1 kmEast (90°)22.2 km/hScattered Clouds
3:11 PM30 °C27 °C84 %1008.5 hPa16.1 kmEast (90°)22.2 km/hMostly Cloudy
3:17 PM30 °C26 °C79 %1008.5 hPa16.1 kmEast (90°)24.1 km/hScattered Clouds
3:32 PM30 °C27 °C84 %1008.1 hPa16.1 kmENE (70°)20.4 km/h31.5 km/hMostly Cloudy
3:55 PM29 °C26.3 °C85 %1008.1 hPa16.1 kmENE (70°)22.2 km/h35.2 km/hMostly Cloudy
4:01 PM30 °C26 °C79 %1008.5 hPa16.1 kmEast (80°)22.2 km/hScattered Clouds
4:06 PM30 °C27 °C84 %1008.5 hPa16.1 kmENE (70°)20.4 km/hMostly Cloudy
4:09 PM30 °C26 °C79 %1008.5 hPa16.1 kmENE (70°)20.4 km/h31.5 km/hScattered Clouds
4:14 PM29 °C26 °C84 %1008.5 hPa16.1 kmENE (60°)20.4 km/h31.5 km/hMostly Cloudy
4:17 PM29 °C26 °C84 %1008.5 hPa16.1 kmENE (70°)22.2 km/hMostly Cloudy
4:30 PM29 °C26 °C84 %1008.5 hPa16.1 kmENE (70°)25.9 km/hMostly Cloudy
4:34 PM30 °C26 °C79 %1008.5 hPa16.1 kmEast (80°)27.8 km/hMostly Cloudy
4:52 PM30 °C26 °C79 %1008.5 hPa16.1 kmEast (80°)24.1 km/h33.3 km/hMostly Cloudy
4:55 PM29.3 °C25.8 °C81 %1008.5 hPa16.1 kmEast (90°)20.4 km/hScattered Clouds
5:17 PM29 °C26 °C84 %1008.5 hPa16.1 kmENE (70°)20.4 km/hMostly Cloudy
5:30 PM29 °C25 °C79 %1008.8 hPa16.1 kmEast (80°)22.2 km/hMostly Cloudy
5:33 PM28 °C25 °C84 %1008.8 hPa16.1 kmEast (80°)22.2 km/hMostly Cloudy
5:35 PM28 °C25 °C84 %1008.8 hPa16.1 kmEast (90°)20.4 km/hScattered Clouds
5:55 PM28.5 °C25 °C81 %1008.8 hPa16.1 kmEast (80°)18.5 km/hClear
6:55 PM27.6 °C25 °C86 %1009.5 hPa16.1 kmENE (70°)18.5 km/hPartly Cloudy
7:55 PM27.2 °C25.1 °C88 %1010.2 hPa16.1 kmENE (60°)13 km/hPartly Cloudy
8:55 PM27.2 °C25 °C88 %1010.5 hPa16.1 kmNE (50°)16.7 km/hScattered Clouds
9:55 PM27.3 °C24.7 °C86 %1010.5 hPa16.1 kmENE (60°)20.4 km/hPartly Cloudy
10:55 PM27.2 °C24.7 °C86 %1010.5 hPa16.1 kmENE (70°)20.4 km/hScattered Clouds
11:08 PM27 °C24 °C84 %1010.5 hPa16.1 kmENE (70°)16.7 km/hMostly Cloudy
11:18 PM27 °C24 °C84 %1010.5 hPa16.1 kmEast (80°)18.5 km/hScattered Clouds
11:55 PM26.9 °C24.3 °C86 %1010.5 hPa16.1 kmENE (60°)16.7 km/hPartly Cloudy
Hourly data recorded from PGUA, located 0 kilometers away from Tamuning, Guam







STORIES FROM OUR PARTNERS